Location: Mountain View
(37.3861°N, 122.0839°W)
Time: 15:22:28
(UTC-07:00)

Hubble Space Telescope - Visible Passes

Search period start: 18 October 2017 00:00
Search period end: 28 October 2017 00:00
Orbit: 537 x 541 km, 28.5° (Epoch: 17 October)

Date Brightness Start Highest point End Pass type
(mag) Time Alt. Az. Time Alt. Az. Time Alt. Az.
20 Oct 3.4 20:39:17 10° SW 20:39:57 13° SSW 20:39:57 13° SSW visible
21 Oct 3.2 18:50:55 10° SSE 18:51:25 10° SSE 18:51:54 10° SSE visible
21 Oct 3.0 20:28:51 10° SW 20:30:24 17° SSW 20:30:24 17° SSW visible
22 Oct 2.7 20:18:27 10° SW 20:20:49 21° SSW 20:20:49 21° SSW visible
23 Oct 2.4 20:08:08 10° SW 20:11:13 23° S 20:11:13 23° S visible
24 Oct 2.3 19:57:49 10° SW 20:01:08 23° S 20:01:36 23° SSE visible
25 Oct 2.4 19:47:33 10° SW 19:50:52 23° S 19:52:00 21° SSE visible
26 Oct 2.5 19:37:19 10° WSW 19:40:36 23° S 19:42:24 17° SSE visible
27 Oct 2.7 19:27:07 10° WSW 19:30:19 22° S 19:32:51 13° SE visible
